GW2428 Weather Reports


Display with metric or nautical units.
time (UTC)temp
F
wind
direction
speed
MPH
gust
MPH
rain 1hr
in
rain 24hr
in
rain mn
in
humidity
%
barometer
mb
20260906045529 62 225 0.0 0.0 0.00 0.00 0.00 92 1022.4
20260906044529 62 225 0.0 0.0 0.00 0.00 0.00 93 1022.4
20260906043531 62 225 0.0 0.0 0.00 0.00 0.00 92 1022.5
20260906042529 62 225 0.0 0.0 0.00 0.00 0.00 91 1022.5
20260906040529 63 225 0.0 0.0 0.00 0.00 0.00 92 1022.6
20260906035612 63 225 0.0 0.0 0.00 0.00 0.00 91 1022.7
20260906034613 63 225 0.0 0.0 0.00 0.00 0.00 92 1022.8
20260906033610 63 225 0.0 0.0 0.00 0.00 0.00 91 1022.9
20260906032627 64 225 0.0 0.0 0.00 0.00 0.00 91 1022.9
20260906031710 64 225 0.0 0.0 0.00 0.00 0.00 91 1022.9
20260906030713 64 225 0.0 0.0 0.00 0.00 0.00 93 1023.0
20260906025712 64 225 0.0 0.0 0.00 0.00 0.00 93 1022.8
20260906024727 64 225 0.0 0.0 0.00 0.00 0.00 92 1022.7
20260906023809 64 225 0.0 0.0 0.00 0.00 0.00 90 1022.6
20260906022811 64 225 0.0 0.0 0.00 0.00 0.00 90 1022.5
20260906021813 65 225 0.0 0.0 0.00 0.00 0.00 90 1022.5
20260906020909 65 225 0.0 0.0 0.00 0.00 0.00 90 1022.4
20260906015911 65 225 0.0 0.0 0.00 0.00 0.00 89 1022.6
20260906014913 65 225 0.0 0.0 0.00 0.00 0.00 90 1022.5
20260906014011 66 225 0.0 0.0 0.00 0.00 0.00 90 1022.6
20260906013011 66 225 0.0 0.0 0.00 0.00 0.00 89 1022.5
20260906012011 66 225 0.0 0.0 0.00 0.00 0.00 89 1022.3
20260906011110 67 225 0.0 0.0 0.00 0.00 0.00 86 1022.1
20260906010110 67 225 0.0 0.0 0.00 0.00 0.00 87 1022.1
20260906005111 67 225 0.0 0.0 0.00 0.00 0.00 86 1021.7
20260906004211 67 337 0.0 0.0 0.00 0.00 0.00 86 1021.7
20260906003210 68 337 0.0 0.0 0.00 0.00 0.00 85 1021.7
20260906002211 68 337 0.0 0.0 0.00 0.00 0.00 85 1021.6
20260906001211 68 337 0.0 0.0 0.00 0.00 0.00 83 1021.6
20260906000311 69 337 0.0 0.0 0.00 0.00 0.00 83 1021.3
20260905235311 69 22 0.0 0.0 0.00 0.00 0.00 82 1021.2
20260905233412 71 343 1.0 4.0 0.00 0.00 0.00 79 1021.4
20260905232510 71 342 0.0 0.0 0.00 0.00 0.00 80 1021.3
20260905231512 71 360 0.0 1.0 0.00 0.00 0.00 78 1021.2
20260905230511 72 22 0.0 4.0 0.00 0.00 0.00 78 1021.3
20260905225608 72 45 0.0 0.0 0.00 0.00 0.00 78 1021.3
20260905224610 73 247 0.0 0.0 0.00 0.00 0.00 76 1021.2
20260905223612 73 247 0.0 0.0 0.00 0.00 0.00 76 1021.4
20260905222709 74 180 0.0 0.0 0.00 0.00 0.00 75 1021.2
20260905221713 74 202 0.0 0.0 0.00 0.00 0.00 72 1021.3
20260905220711 75 193 0.0 0.0 0.00 0.00 0.00 72 1021.3
20260905215727 75 165 1.0 4.0 0.00 0.00 0.00 72 1021.3
20260905214712 76 112 0.0 0.0 0.00 0.00 0.00 70 1021.2
20260905213810 76 270 0.0 0.0 0.00 0.00 0.00 70 1021.2
20260905212809 76 202 0.0 1.0 0.00 0.00 0.00 70 1021.3
20260905210910 78 147 1.0 3.0 0.00 0.00 0.00 66 1021.3
20260905205912 79 211 1.0 4.0 0.00 0.00 0.00 63 1021.3
20260905205810 79 140 2.0 5.0 0.00 0.00 0.00 64 1021.3
20260905204908 80 202 0.0 0.0 0.00 0.00 0.00 63 1021.3
20260905203909 81 225 0.0 0.0 0.00 0.00 0.00 62 1021.4
20260905202910 82 176 0.0 0.0 0.00 0.00 0.00 61 1021.2
20260905202811 82 157 0.0 0.0 0.00 0.00 0.00 61 1021.3
20260905201909 81 157 0.0 0.0 0.00 0.00 0.00 59 1021.2
20260905200909 80 225 0.0 0.0 0.00 0.00 0.00 63 1021.3
20260905195912 79 180 0.0 1.0 0.00 0.00 0.00 63 1021.3
20260905194910 77 157 1.0 2.0 0.00 0.00 0.00 69 1021.3
20260905194808 77 238 0.0 1.0 0.00 0.00 0.00 69 1021.3
20260905193811 73 157 0.0 2.0 0.00 0.00 0.00 76 1021.5
20260905192909 71 136 0.0 1.0 0.00 0.00 0.00 77 1021.8
20260905190910 70 135 1.0 1.0 0.00 0.00 0.00 77 1022.0
20260905185911 69 120 1.0 4.0 0.00 0.00 0.00 76 1022.0
20260905184912 68 193 1.0 2.0 0.00 0.00 0.00 79 1022.0
20260905183910 68 180 0.0 0.0 0.00 0.00 0.00 79 1021.8
20260905181012 67 247 0.0 0.0 0.00 0.00 0.00 79 1022.8
20260905180009 68 22 0.0 0.0 0.00 0.00 0.00 78 1022.9
20260905175009 69 225 0.0 0.0 0.00 0.00 0.00 75 1023.3
20260905174010 71 180 0.0 0.0 0.00 0.00 0.00 70 1023.8
20260905173011 73 157 0.0 1.0 0.00 0.00 0.00 66 1024.1
20260905172008 75 304 0.0 2.0 0.00 0.00 0.00 68 1024.0
20260905171009 76 147 2.0 3.0 0.00 0.00 0.00 70 1024.2
20260905170010 77 270 0.0 2.0 0.00 0.00 0.00 72 1024.2
20260905165013 78 273 0.0 1.0 0.00 0.00 0.00 70 1024.2
20260905164009 79 202 0.0 0.0 0.00 0.00 0.00 70 1024.0
20260905163012 79 172 1.0 2.0 0.00 0.00 0.00 69 1024.2
20260905162110 79 353 0.0 1.0 0.00 0.00 0.00 69 1024.1
20260905161109 79 42 0.0 1.0 0.00 0.00 0.00 72 1023.8
20260905160108 79 45 0.0 0.0 0.00 0.00 0.00 72 1024.0
20260905155112 79 179 1.0 2.0 0.00 0.00 0.00 71 1024.4
20260905154110 80 135 0.0 1.0 0.00 0.00 0.00 68 1024.4
20260905153209 81 266 0.0 2.0 0.00 0.00 0.00 68 1024.3
20260905152211 81 49 2.0 5.0 0.00 0.00 0.00 69 1024.0
20260905151212 80 102 2.0 2.0 0.00 0.00 0.00 71 1023.6
20260905150210 78 180 0.0 1.0 0.00 0.00 0.00 75 1023.7
20260905145208 76 180 1.0 1.0 0.00 0.00 0.00 77 1023.4
20260905144210 76 175 1.0 1.0 0.00 0.00 0.00 78 1023.7
20260905143211 75 135 0.0 1.0 0.00 0.00 0.00 77 1023.9
20260905142308 75 273 0.0 0.0 0.00 0.00 0.00 76 1023.8
20260905141310 75 41 2.0 7.0 0.00 0.00 0.00 78 1023.6
20260905140409 75 91 3.0 4.0 0.00 0.00 0.00 78 1023.6
20260905135409 74 157 1.0 1.0 0.00 0.00 0.00 80 1023.7
20260905134410 73 157 0.0 1.0 0.00 0.00 0.00 81 1023.7
20260905133408 73 180 0.0 1.0 0.00 0.00 0.00 82 1023.8
20260905132411 72 180 1.0 2.0 0.00 0.00 0.00 83 1023.9
20260905125410 70 157 0.0 1.0 0.00 0.00 0.00 87 1024.0
20260905124410 70 247 0.0 0.0 0.00 0.00 0.00 88 1024.1
20260905123411 69 247 0.0 0.0 0.00 0.00 0.00 88 1024.1
20260905122410 69 292 0.0 0.0 0.00 0.00 0.00 89 1024.1
20260905121411 68 360 0.0 0.0 0.00 0.00 0.00 90 1024.1
20260905120509 68 247 0.0 0.0 0.00 0.00 0.00 89 1024.0
20260905115608 68 292 0.0 0.0 0.00 0.00 0.00 90 1023.8
20260905114610 68 292 0.0 0.0 0.00 0.00 0.00 89 1023.8
20260905113625 68 315 0.0 0.0 0.00 0.00 0.00 89 1023.8
20260905113508 68 315 0.0 0.0 0.00 0.00 0.00 90 1023.8
20260905111609 68 315 0.0 0.0 0.00 0.00 0.00 89 1023.6
20260905110609 68 315 0.0 0.0 0.00 0.00 0.00 89 1023.5
20260905105709 68 315 0.0 0.0 0.00 0.00 0.00 89 1023.5
20260905104709 68 315 0.0 0.0 0.00 0.00 0.00 89 1023.5
20260905103710 68 315 0.0 1.0 0.00 0.00 0.00 89 1023.4
20260905102711 68 315 0.0 0.0 0.00 0.00 0.00 88 1023.3
20260905101708 68 315 0.0 0.0 0.00 0.00 0.00 89 1023.2
20260905100709 68 315 0.0 1.0 0.00 0.00 0.00 87 1023.4
20260905095710 68 315 0.0 1.0 0.00 0.00 0.00 87 1023.1
20260905094808 68 315 0.0 0.0 0.00 0.00 0.00 88 1023.2
20260905093809 68 315 0.0 0.0 0.00 0.00 0.00 88 1022.9
20260905092907 68 315 0.0 0.0 0.00 0.00 0.00 87 1023.0
20260905091911 68 315 0.0 0.0 0.00 0.00 0.00 88 1022.9
20260905090911 68 315 0.0 0.0 0.00 0.00 0.00 87 1022.9
20260905090009 68 360 0.0 0.0 0.00 0.00 0.00 87 1023.1
20260905085009 68 291 0.0 0.0 0.00 0.00 0.00 88 1023.1
20260905084011 68 292 0.0 0.0 0.00 0.00 0.00 88 1023.4
20260905083011 68 308 0.0 0.0 0.00 0.00 0.00 88 1023.4
20260905082010 68 337 0.0 0.0 0.00 0.00 0.00 88 1023.4
20260905081009 68 337 0.0 0.0 0.00 0.00 0.00 88 1023.5
20260905080009 68 337 0.0 0.0 0.00 0.00 0.00 88 1023.7
20260905075107 68 337 0.0 0.0 0.00 0.00 0.00 88 1023.8
20260905074110 68 337 0.0 0.0 0.00 0.00 0.00 88 1023.9
20260905073108 68 337 0.0 0.0 0.00 0.00 0.00 89 1023.9
20260905073009 68 337 0.0 0.0 0.00 0.00 0.00 88 1023.8
20260905072108 68 337 0.0 0.0 0.00 0.00 0.00 89 1023.9
20260905071109 68 337 0.0 0.0 0.00 0.00 0.00 88 1024.1
20260905070108 68 337 0.0 0.0 0.00 0.00 0.00 89 1024.1
20260905065112 67 337 0.0 1.0 0.00 0.00 0.00 91 1024.3
20260905062208 66 337 0.0 0.0 0.00 0.00 0.00 93 1024.7
20260905061210 66 337 0.0 0.0 0.00 0.00 0.00 94 1024.8
20260905060309 65 337 0.0 0.0 0.00 0.00 0.00 94 1024.9
20260905055310 65 337 0.0 0.0 0.00 0.00 0.00 94 1025.1
20260905054407 65 337 0.0 0.0 0.00 0.00 0.00 92 1025.2
20260905053409 65 337 0.0 0.0 0.00 0.00 0.00 93 1025.3
20260905052408 65 337 0.0 0.0 0.00 0.00 0.00 92 1025.4